Home > Weather > Patna > Past weeks

Flag for India Past Weather in Patna, Bihar, India — Yesterday and Last 2 Weeks

Now
81 °F

Light rain. Broken clouds.


Feels Like: 87 °F
Forecast: 80 / 94 °F
Wind: 3 mph from East

Location: Patna Airport

Current Time: Jul 31, 2016 at 9:11:44 AM

Latest Report: Jul 31, 2016 at 8:30 AM


Visibility: 2 mi

Pressure: 29.65 "Hg

Humidity: 89%

Dew Point: 77 °F

Location of PatnaLocation

Past Weather in Patna — Graph

°F

Patna Temperature Yesterday

Maximum temperature yesterday: 90 °F (at 12:30 PM)
Minimum temperature yesterday: 81 °F (at 5:30 AM)
Average temperature yesterday: 86 °F

High & Low Weather Summary for the Past Weeks

 TemperatureHumidityPressure
High102 °F (Jul 26, 8:00 PM)100% (Jul 17, 8:00 AM)29.71 "Hg (Jul 17, 8:00 AM)
Low77 °F (Jul 29, 5:30 AM)45% (Jul 26, 8:00 PM)29.47 "Hg (Jul 16, 3:30 PM)
Average85 °F83%29.58 "Hg
* Reported Jul 16 7:30 AM — Jul 31 7:30 AM, Patna, Weather by CustomWeather, © 2016

Note: Actual official high and low records may vary slightly from our data, if they occured in-between our weather recording intervals... More about our weather records

Advertising

Patna Weather History for the Previous 24 Hours

Scroll right to see more
 ConditionsComfort  
Time TempWeatherWind HumidityBarometerVisibility
7:30 AM
Sun, Jul 31
82 °FLight rain. Cloudy.7 mph89%29.62 "Hg1 mi
7:00 AM82 °FLight rain. More clouds than sun.7 mph89%29.62 "Hg1 mi
6:30 AM82 °FLight rain. More clouds than sun.3 mph89%29.59 "Hg1 mi
5:30 AM82 °FLight rain. Mostly cloudy.3 mph89%29.62 "Hg1 mi
9:30 PM
Sat, Jul 30
82 °FPartly cloudy.5 mph79%29.62 "Hg2 mi
9:00 PM82 °FPartly cloudy.3 mph79%29.59 "Hg2 mi
8:30 PM82 °FPartly cloudy.3 mph79%29.59 "Hg2 mi
8:00 PM86 °FPartly cloudy.3 mph84%29.59 "Hg2 mi
7:30 PM88 °FPartly cloudy.3 mph79%29.59 "Hg2 mi
7:00 PM88 °FBroken clouds.5 mph79%29.53 "Hg2 mi
6:30 PM88 °FBroken clouds.2 mph79%29.53 "Hg2 mi
6:00 PM88 °FBroken clouds.6 mph79%29.53 "Hg2 mi
5:30 PM88 °FBroken clouds.6 mph79%29.53 "Hg2 mi
5:00 PM88 °FBroken clouds.5 mph84%29.50 "Hg2 mi
4:30 PM90 °FBroken clouds.6 mph79%29.50 "Hg2 mi
4:00 PM90 °FBroken clouds.7 mph79%29.50 "Hg2 mi
3:30 PM90 °FBroken clouds.8 mph79%29.50 "Hg2 mi
3:00 PM90 °FBroken clouds.9 mph79%29.50 "Hg2 mi
2:30 PM90 °FBroken clouds.10 mph79%29.53 "Hg2 mi
2:00 PM90 °FBroken clouds.7 mph75%29.56 "Hg2 mi
1:30 PM90 °FBroken clouds.6 mph75%29.59 "Hg2 mi
1:00 PM90 °FBroken clouds.7 mph75%29.62 "Hg2 mi
12:30 PM90 °FBroken clouds.7 mph75%29.62 "Hg2 mi
12:00 PM88 °FBroken clouds.7 mph79%29.62 "Hg2 mi
11:30 AM88 °FBroken clouds.7 mph79%29.62 "Hg2 mi
11:00 AM86 °FBroken clouds.5 mph84%29.65 "Hg2 mi
10:30 AM86 °FBroken clouds.5 mph84%29.65 "Hg2 mi
9:30 AM84 °FBroken clouds.2 mph89%29.65 "Hg1 mi
9:00 AM84 °FBroken clouds.3 mph89%29.65 "Hg1 mi
Weather by CustomWeather, © 2016

See weather overviewHow to use our weather pages